Location: Jaite
(41.2884°N, 81.5737°W)
Time: 12:50:36
(UTC+00:00)

SKYMED 2 - Pass Details

Date: 15 November 2025
Orbit: 621 x 623 km, 97.9° (Epoch: 11 December)

Event Time Altitude Azimuth Distance (km) Brightness Sun altitude
Rises 10:13:33 0° 152° (SSE) 2,891 7.5 -22.8°
Reaches altitude 10° 10:15:47 10° 147° (SSE) 1,989 6.6 -22.3°
Maximum altitude 10:19:57 48° 73° (ENE) 816 4.5 -21.6°
Drops below altitude 10° 10:24:08 10° 359° (N) 2,002 6.1 -20.8°
Sets 10:26:23 0° 354° (N) 2,913 6.9 -20.4°
